#timestamp,LO_Frequency,Hit,StdDev 
1630296015.5,286046999.8,N
1630296035.3,286046999.8,N
1630296055.2,286046999.8,N
1630296075.0,286047002.4,N
1630296075.9,286047002.4,N
1630296095.7,286047003.8,N
1630296115.6,286047003.6,N
1630296135.4,286047004.1,N
1630296155.3,286047001.6,N
1630296175.1,286047002.6,N
1630296176.0,286047002.6,N
1630296195.8,286047002.1,N
1630296215.7,286047002.3,N
1630296235.5,286047002.7,N
1630296255.3,286047000.1,N
1630296275.2,286047002.8,N
1630296295.0,286047000.0,N
1630296295.9,286047000.0,N
1630296315.8,286047001.0,N
1630296335.6,286047000.5,N
1630296355.4,286047000.9,N
1630296375.3,286047000.4,N
1630296395.1,286046999.9,N
1630296415.9,286047002.3,N
1630296435.7,286047002.5,N
1630296455.5,286047002.5,N
1630296475.4,286047002.2,N
1630296495.2,286047001.4,N
1630296515.1,286047001.6,N
1630296516.0,286047001.6,N
1630296535.8,286047001.4,N
1630296555.6,286047004.1,Y
1630296575.5,286047001.5,P
1630296595.3,286047003.1,P
1630296615.5,286047003.4,P
1630296635.3,286047003.7,Y
1630296655.1,286047001.2,P
1630296675.9,286046998.5,N
1630296695.7,286047000.0,N
1630296715.6,286046999.8,N
1630296735.4,286047002.4,N
1630296755.2,286047001.7,N
1630296775.1,286047001.3,N
1630296776.0,286047001.3,N
1630296795.8,286047004.0,Y
1630296815.6,286047000.3,P
1630296835.5,286047002.0,P
1630296855.3,286047002.6,P
1630296875.2,286046999.8,N
1630296895.9,286047002.8,N
1630296915.7,286047001.9,N
1630296935.6,286047001.4,N
1630296955.4,286047002.5,N
1630296975.2,286047001.5,N
1630296995.1,286047004.4,Y
1630297015.7,286047002.0,P
1630297035.6,286047001.6,P
1630297055.4,286047004.4,P
1630297075.2,286047003.6,Y
1630297095.1,286047000.2,P
1630297096.0,286047000.2,N
1630297115.8,286047002.0,N
1630297135.6,286047002.4,N
1630297155.5,286046999.7,N
1630297175.8,286046999.9,N
1630297195.6,286047000.1,N
1630297215.5,286047002.8,N
1630297235.6,286047002.1,N
1630297255.5,286046999.8,N
1630297275.3,286047001.2,N
1630297295.1,286046999.4,N
1630297315.9,286046997.1,N
1630297335.7,286046999.1,N
1630297355.6,286046998.9,N
1630297375.4,286046999.1,N
1630297395.2,286046997.1,N
1630297415.1,286046995.3,N
1630297416.0,286046995.3,N
1630297435.8,286046996.3,N
1630297455.7,286046996.3,N
1630297475.5,286046993.9,N
1630297495.3,286046995.9,N
1630297515.2,286046996.8,N
1630297535.0,286046999.3,N
1630297535.9,286046999.3,N
1630297555.7,286046998.8,N
1630297575.6,286047000.8,N
1630297595.4,286047001.1,N
1630297615.3,286047000.7,N
1630297635.1,286046998.6,N
1630297655.9,286046998.2,N
1630297675.7,286046998.3,N
1630297695.6,286047001.0,N
1630297715.3,286047000.7,N
1630297735.1,286047001.1,N
1630297755.9,286046998.5,N
1630297775.7,286046998.3,N
1630297795.6,286047000.7,N
1630297815.4,286046999.4,N
1630297835.2,286046999.2,N
1630297855.1,286046999.1,N
1630297856.0,286046999.1,N
1630297875.8,286046997.3,N
1630297895.6,286046999.2,N
1630297915.5,286046997.7,N
1630297935.3,286046997.6,N
1630297955.2,286046997.5,N
1630297975.9,286046999.1,N
1630297995.7,286047000.9,N
1630298015.6,286047002.8,N
1630298035.4,286047000.8,N
1630298055.2,286046998.8,N
1630298075.1,286046998.3,N
1630298076.0,286046998.3,N
1630298095.8,286046998.1,N
1630298115.9,286046999.1,N
1630298135.7,286046996.6,N
1630298155.5,286046999.2,N
1630298175.4,286046997.7,N
1630298195.2,286046997.3,N
1630298215.1,286046997.6,N
1630298216.0,286046997.6,N
1630298235.8,286046999.6,N
1630298255.6,286046999.3,N
1630298275.5,286046999.3,N
1630298295.3,286046999.3,N
1630298315.1,286046996.7,N
1630298335.9,286046999.6,N
1630298355.7,286046998.6,N
1630298375.6,286046998.7,N
1630298395.4,286046998.3,N
1630298415.3,286046996.6,N
1630298435.1,286046997.4,N
1630298436.0,286046997.4,N
1630298455.8,286046995.7,Y
1630298475.7,286046995.8,P
1630298495.5,286046996.2,N
1630298515.4,286046995.1,P
1630298535.2,286046997.6,N
1630298555.0,286046995.6,Y
1630298555.9,286046995.6,P
1630298575.8,286046998.1,P
1630298595.6,286046998.5,N
1630298615.4,286046998.9,N
1630298635.3,286046998.6,N
1630298655.1,286047000.4,N
1630298675.9,286046999.8,N
1630298695.7,286046999.7,N
1630298715.5,286047000.0,N
1630298735.4,286047000.7,N
1630298755.2,286047002.8,N
1630298775.0,286047000.1,N
1630298775.9,286047000.1,N
1630298795.8,286047002.3,N
1630298815.6,286047001.9,N
1630298835.5,286047002.3,N
1630298855.1,286047002.8,N
1630298856.0,286047002.8,N
1630298875.8,286047000.4,N
1630298895.6,286047000.7,N
1630298915.5,286046998.9,N
1630298935.0,286046998.9,N
1630298935.9,286046998.9,N
1630298955.8,286046999.5,N
1630298975.6,286047000.6,N
1630298995.5,286046999.8,N
1630299015.3,286047002.6,N
1630299035.1,286047001.5,N
1630299055.9,286046999.8,N
1630299075.7,286047002.7,N
1630299095.6,286047002.8,N
1630299115.4,286047002.8,N
1630299135.2,286047000.8,N
1630299155.1,286047002.5,N
1630299156.0,286047002.5,N
1630299175.8,286047004.2,Y
1630299195.6,286047002.5,P
1630299215.5,286047002.6,P
1630299235.3,286047002.7,P
1630299255.2,286047002.2,Y
1630299275.0,286046998.2,P
1630299275.9,286046998.2,N
1630299295.8,286047000.4,N
1630299315.6,286047000.2,N
1630299335.4,286047002.3,N
1630299355.3,286046999.8,N
1630299375.1,286047002.6,N
1630299395.9,286047001.5,N
1630299415.7,286047002.1,N
1630299435.5,286047002.8,N
1630299455.4,286046998.2,N
1630299475.2,286046999.1,N
1630299495.0,286046997.3,N
1630299495.9,286046997.3,N
1630299515.8,286046998.6,N
1630299535.6,286047001.2,N
1630299555.4,286046998.1,N
1630299575.3,286047001.2,N
1630299595.1,286047000.7,N
